Rome, GA

3:49 PM EST on November 15, 2019 (GMT -0500)
Russell

Weather History for KRMG - September, 2019

Change the Weather History Date:

Saturday, September 28, 2019

  Actual Average Record
Temperature  
Mean Temperature 82 °F 68 °F  
Max Temperature 93 °F 80 °F 92 °F (2017)
Min Temperature 70 °F 56 °F 45 °F (2000)
Degree Days  
Heating Degree Days 0 1  
Month to date heating degree days 0 9  
Since 1 July heating degree days 0 9  
Cooling Degree Days 16 4  
Month to date cooling degree days 420 216  
Year to date cooling degree days 2179 1582  
Growing Degree Days 32 (Base 50)    
Moisture  
Dew Point 71 °F    
Average Humidity 82    
Maximum Humidity 94    
Minimum Humidity 46    
Precipitation  
Precipitation 0.12 in 0.15 in 0.38 in (2005)
Month to date precipitation 0.31 3.13  
Year to date precipitation 42.76 38.55  
Sea Level Pressure  
Sea Level Pressure 30.06 in    
Wind  
Wind Speed 2 mph ()    
Max Wind Speed 9 mph    
Max Gust Speed 13 mph    
Visibility 5.9 miles    
Events Fog , Rain , Thunderstorm    
T = Trace of Precipitation, MM = Missing Value Source: Averaged Metar Reports

Daily Weather History Graph

Daily Weather History Graph

Search for Another Location

Airport or City:

Astronomy

Sep. 28, 2019 Rise Set
Actual Time 7:32 AM EDT 7:29 PM EDT
Civil Twilight 7:07 AM EDT 7:54 PM EDT
Nautical Twilight 6:38 AM EDT 8:23 PM EDT
Astronomical Twilight 6:09 AM EDT 8:52 PM EDT
Moon 7:11 AM EDT (9/28) 7:52 PM EDT (9/28)
Length of Visible Light 12h 46m
Length of Day
11h 56m
Waning Crescent, 0% of the Moon is Illuminated
Sep 28
Waning Crescent
Sep 28
New
Oct 5
First Quarter
Oct 13
Full
Oct 21
Last Quarter

Hourly Weather History & Observations

Time (EDT) Temp. Heat Index Dew Point Humidity Pressure Visibility Wind Dir Wind Speed Gust Speed Precip Events Conditions
12:12 AM 73.9 °F - 71.1 °F 91% 30.03 in 10.0 mi Calm Calm - N/A   Mostly Cloudy
12:28 AM 73.9 °F - 71.1 °F 91% 30.03 in 7.0 mi East 3.5 mph - N/A Thunderstorm Scattered Clouds
12:53 AM 73.9 °F - 71.1 °F 91% 30.00 in 6.0 mi South 5.8 mph - 0.01 in Rain , Thunderstorm Light Rain
1:42 AM 73.9 °F - 71.1 °F 91% 30.02 in 4.0 mi NNW 3.5 mph - 0.11 in Rain Rain
1:53 AM 73.9 °F - 72.0 °F 93% 29.98 in 6.0 mi Calm Calm - 0.11 in   Overcast
2:01 AM 73.9 °F - 72.0 °F 93% 30.01 in 5.0 mi Calm Calm - N/A Thunderstorm Overcast
2:17 AM 73.9 °F - 71.1 °F 91% 30.01 in 6.0 mi SSE 3.5 mph - N/A   Overcast
2:53 AM 73.9 °F - 71.1 °F 91% 29.98 in 6.0 mi Calm Calm - 0.00 in   Overcast
3:48 AM 73.4 °F - 71.6 °F 94% 29.99 in 2.0 mi West 3.5 mph - N/A   Partly Cloudy
3:53 AM 73.0 °F - 71.1 °F 93% 29.96 in 2.5 mi West 4.6 mph - N/A   Clear
4:02 AM 73.0 °F - 71.1 °F 93% 30.00 in 4.0 mi WSW 4.6 mph - N/A   Clear
4:45 AM 72.0 °F - 70.0 °F 93% 30.02 in 2.5 mi NE 4.6 mph - N/A   Partly Cloudy
4:53 AM 72.0 °F - 70.0 °F 93% 29.99 in 1.8 mi NE 4.6 mph - N/A   Scattered Clouds
5:02 AM 72.0 °F - 70.0 °F 93% 30.03 in 3.0 mi NE 5.8 mph - N/A   Partly Cloudy
5:53 AM 72.0 °F - 70.0 °F 93% 30.02 in 4.0 mi Calm Calm - N/A   Clear
6:53 AM 72.0 °F - 70.0 °F 93% 30.03 in 5.0 mi Calm Calm - N/A   Clear
7:44 AM 70.0 °F - 68.0 °F 93% 30.09 in 1.2 mi Calm Calm - N/A   Clear
7:51 AM 71.6 °F - 69.8 °F 94% 30.09 in 0.5 mi Calm Calm - N/A Fog Fog
7:53 AM 71.1 °F - 69.1 °F 93% 30.07 in 0.5 mi Calm Calm - N/A Fog Fog
7:57 AM 71.1 °F - 69.1 °F 93% 30.09 in 2.0 mi Calm Calm - N/A   Clear
8:03 AM 71.1 °F - 69.1 °F 93% 30.10 in 1.0 mi Calm Calm - N/A   Mist
8:10 AM 71.1 °F - 69.1 °F 93% 30.10 in 0.5 mi Calm Calm - N/A Fog Fog
8:16 AM 71.1 °F - 69.1 °F 93% 30.11 in 1.2 mi Calm Calm - N/A   Partly Cloudy
8:22 AM 72.0 °F - 70.0 °F 93% 30.11 in 3.0 mi Calm Calm - N/A   Mostly Cloudy
8:53 AM 72.0 °F - 70.0 °F 93% 30.10 in 4.0 mi Calm Calm - N/A   Overcast
9:53 AM 77.0 °F - 72.0 °F 84% 30.11 in 8.0 mi NNE 3.5 mph - N/A   Mostly Cloudy
10:53 AM 80.1 °F 84.2 °F 73.0 °F 79% 30.12 in 10.0 mi Calm Calm - N/A   Scattered Clouds
11:53 AM 82.0 °F 87.9 °F 73.9 °F 76% 30.12 in 10.0 mi Calm Calm - N/A   Mostly Cloudy
12:53 PM 88.0 °F 95.6 °F 73.0 °F 61% 30.11 in 10.0 mi NW 3.5 mph - N/A   Clear
1:53 PM 88.0 °F 93.8 °F 71.1 °F 57% 30.10 in 10.0 mi NNE 5.8 mph - N/A   Mostly Cloudy
2:53 PM 91.0 °F 96.6 °F 70.0 °F 50% 30.08 in 10.0 mi Variable 5.8 mph - N/A   Clear
3:53 PM 93.0 °F 99.0 °F 70.0 °F 47% 30.06 in 10.0 mi ENE 5.8 mph - N/A   Mostly Cloudy
4:53 PM 93.0 °F 99.0 °F 70.0 °F 47% 30.06 in 10.0 mi Variable 4.6 mph - N/A   Clear
5:53 PM 91.0 °F 95.6 °F 69.1 °F 48% 30.06 in 10.0 mi West 4.6 mph - N/A   Scattered Clouds
6:53 PM 90.0 °F 94.5 °F 69.1 °F 50% 30.06 in 10.0 mi NNW 3.5 mph - N/A   Overcast
7:53 PM 82.0 °F 86.7 °F 72.0 °F 71% 30.07 in 10.0 mi Calm Calm - N/A   Scattered Clouds
8:53 PM 82.0 °F 86.7 °F 72.0 °F 71% 30.08 in 10.0 mi Calm Calm - N/A   Partly Cloudy
9:53 PM 80.1 °F 83.8 °F 72.0 °F 76% 30.10 in 10.0 mi ESE 3.5 mph - N/A   Scattered Clouds
10:53 PM 80.1 °F 82.9 °F 69.1 °F 69% 30.09 in 10.0 mi Calm Calm - N/A   Clear
11:53 PM 75.9 °F - 70.0 °F 82% 30.11 in 10.0 mi WNW 3.5 mph - N/A   Clear